VE3TEJ Weather Reports


Display with metric or nautical units.
time (UTC)temp
F
wind
direction
speed
MPH
gust
MPH
rain 1hr
in
rain 24hr
in
rain mn
in
humidity
%
barometer
mb
20260510082745 41 343 2.0 3.0 0.00 0.19 0.00 70 1009.9
20260510082247 41 301 1.0 2.0 0.00 0.19 0.00 69 1009.9
20260510081746 41 321 2.0 3.0 0.00 0.19 0.00 68 1009.8
20260510081245 41 307 2.0 2.0 0.00 0.19 0.00 69 1009.8
20260510080747 41 331 2.0 2.0 0.00 0.19 0.00 68 1009.8
20260510080246 41 313 2.0 2.0 0.00 0.19 0.00 67 1009.5
20260510075746 41 300 2.0 2.0 0.00 0.19 0.00 67 1009.7
20260510075246 41 316 2.0 2.0 0.00 0.19 0.00 68 1009.8
20260510074745 41 343 2.0 3.0 0.00 0.19 0.00 67 1009.6
20260510074245 41 324 2.0 3.0 0.00 0.19 0.00 67 1009.5
20260510073747 42 319 2.0 3.0 0.00 0.19 0.00 67 1009.7
20260510073246 42 317 2.0 3.0 0.00 0.19 0.00 67 1009.4
20260510072746 42 327 2.0 3.0 0.00 0.19 0.00 66 1009.6
20260510072246 42 316 1.0 2.0 0.00 0.19 0.00 66 1009.3
20260510071745 42 334 2.0 3.0 0.00 0.19 0.00 66 1009.1
20260510071245 43 328 2.0 3.0 0.00 0.19 0.00 65 1009.3
20260510070745 43 331 5.0 6.0 0.00 0.19 0.00 65 1009.4
20260510070247 43 308 3.0 3.0 0.00 0.19 0.00 65 1009.3
20260510065746 43 9 6.0 7.0 0.00 0.19 0.00 65 1009.4
20260510065246 43 323 3.0 3.0 0.00 0.19 0.00 65 1009.6
20260510064746 43 348 5.0 5.0 0.00 0.19 0.00 67 1009.2
20260510064245 44 313 2.0 2.0 0.00 0.19 0.00 67 1009.1
20260510063745 44 313 0.0 3.0 0.00 0.19 0.00 67 1009.1
20260510063247 44 321 2.0 3.0 0.00 0.19 0.00 66 1009.1
20260510062746 45 315 2.0 3.0 0.00 0.19 0.00 66 1009.1
20260510062246 45 342 3.0 5.0 0.00 0.19 0.00 66 1009.1
20260510061746 45 298 2.0 2.0 0.00 0.19 0.00 66 1009.1
20260510061245 45 318 5.0 6.0 0.00 0.19 0.00 65 1009.3
20260510060745 45 330 3.0 5.0 0.00 0.19 0.00 66 1009.0
20260510060247 46 314 3.0 3.0 0.00 0.19 0.00 65 1009.0
20260510055746 46 358 5.0 6.0 0.00 0.19 0.00 65 1009.1
20260510055246 46 328 3.0 5.0 0.00 0.19 0.00 65 1008.7
20260510054746 46 307 1.0 5.0 0.00 0.19 0.00 66 1008.7
20260510054245 46 314 2.0 2.0 0.00 0.19 0.00 66 1008.6
20260510054209 46 314 2.0 2.0 0.00 0.19 0.00 66 1008.6
20260510053745 46 300 2.0 2.0 0.00 0.19 0.00 65 1008.8
20260510053247 46 292 2.0 3.0 0.00 0.19 0.00 64 1008.6
20260510052746 47 339 5.0 6.0 0.00 0.19 0.00 64 1008.5
20260510052710 47 339 5.0 6.0 0.00 0.19 0.00 64 1008.5
20260510052246 47 298 3.0 5.0 0.00 0.19 0.00 64 1008.5
20260510051746 47 305 2.0 2.0 0.00 0.19 0.00 65 1008.5
20260510051245 47 307 2.0 2.0 0.00 0.19 0.00 64 1008.2
20260510050745 47 322 2.0 2.0 0.00 0.19 0.00 64 1008.2
20260510050245 47 315 2.0 2.0 0.00 0.19 0.00 64 1008.2
20260510045746 47 340 3.0 5.0 0.00 0.19 0.00 64 1008.2
20260510045246 47 298 1.0 2.0 0.00 0.19 0.00 65 1008.1
20260510044746 47 319 2.0 2.0 0.00 0.19 0.00 66 1008.0
20260510044246 47 300 1.0 2.0 0.00 0.19 0.00 66 1007.6
20260510044210 47 300 1.0 2.0 0.00 0.19 0.00 66 1007.6
20260510043745 48 326 2.0 2.0 0.00 0.19 0.00 65 1007.6
20260510043245 48 312 1.0 2.0 0.00 0.19 0.00 64 1007.5
20260510042747 48 303 0.0 2.0 0.00 0.19 0.00 64 1007.6
20260510042246 49 305 1.0 2.0 0.00 0.19 0.00 64 1007.7
20260510041746 49 302 1.0 2.0 0.00 0.19 0.00 64 1007.3
20260510041246 49 316 2.0 3.0 0.00 0.19 0.00 64 1007.2
20260510040745 49 304 2.0 2.0 0.00 0.19 0.00 63 1007.3
20260510040247 49 339 2.0 3.0 0.00 0.19 0.00 63 1007.3
20260510035746 49 354 3.0 5.0 0.00 0.19 0.19 64 1007.3
20260510035246 49 345 5.0 6.0 0.00 0.19 0.19 63 1007.3
20260510034745 50 346 3.0 5.0 0.00 0.19 0.19 63 1007.0
20260510034246 50 347 7.0 8.0 0.00 0.19 0.19 65 1006.7
20260510034209 50 347 7.0 8.0 0.00 0.19 0.19 65 1006.7
20260510033745 51 331 3.0 3.0 0.00 0.19 0.19 65 1006.8
20260510033245 50 333 3.0 5.0 0.00 0.19 0.19 65 1006.8
20260510032746 50 302 2.0 2.0 0.00 0.19 0.19 65 1006.6
20260510032246 50 296 2.0 2.0 0.00 0.19 0.19 65 1006.6
20260510031746 50 303 1.0 1.0 0.00 0.19 0.19 67 1006.7
20260510031246 51 318 2.0 2.0 0.00 0.19 0.19 64 1006.5
20260510030745 51 295 1.0 1.0 0.00 0.19 0.19 65 1006.0
20260510030245 50 301 2.0 2.0 0.00 0.19 0.19 66 1006.2
20260510025747 51 296 1.0 2.0 0.00 0.19 0.19 66 1006.3
20260510025246 51 305 1.0 3.0 0.00 0.19 0.19 66 1006.3
20260510024746 51 320 2.0 2.0 0.00 0.19 0.19 65 1006.0
20260510024246 51 309 2.0 3.0 0.00 0.19 0.19 65 1006.3
20260510024209 51 309 2.0 3.0 0.00 0.19 0.19 65 1006.3
20260510023745 53 330 3.0 3.0 0.00 0.19 0.19 64 1006.1
20260510023245 53 2 6.0 8.0 0.00 0.19 0.19 65 1006.4
20260510022747 53 324 5.0 6.0 0.00 0.19 0.19 65 1005.9
20260510022246 54 302 2.0 5.0 0.00 0.19 0.19 64 1005.4
20260510021746 54 350 3.0 5.0 0.00 0.19 0.19 64 1005.4
20260510021245 54 1 3.0 6.0 0.00 0.19 0.19 65 1005.4
20260510021209 54 1 3.0 6.0 0.00 0.19 0.19 65 1005.4
20260510020745 54 6 3.0 3.0 0.00 0.19 0.19 64 1005.5
20260510020245 54 310 3.0 5.0 0.00 0.19 0.19 64 1005.2
20260510015746 54 289 3.0 3.0 0.00 0.19 0.19 65 1005.4
20260510015246 54 312 3.0 5.0 0.00 0.19 0.19 65 1005.3
20260510014746 55 6 2.0 3.0 0.00 0.19 0.19 64 1005.1
20260510014245 55 326 3.0 5.0 0.00 0.19 0.19 65 1005.0
20260510013745 55 310 1.0 2.0 0.00 0.19 0.19 64 1004.5
20260510013245 55 324 3.0 5.0 0.00 0.19 0.19 67 1004.8
20260510012746 55 350 3.0 5.0 0.00 0.19 0.19 66 1005.0
20260510012246 53 332 5.0 6.0 0.00 0.19 0.19 85 1004.6
20260510011746 54 289 0.0 0.0 0.00 0.19 0.19 88 1004.4
20260510011245 54 290 0.0 0.0 0.00 0.19 0.19 88 1004.4
20260510011209 54 290 0.0 0.0 0.00 0.19 0.19 88 1004.4
20260510010745 55 289 0.0 0.0 0.00 0.19 0.19 87 1004.2
20260510010247 55 289 0.0 0.0 0.00 0.19 0.19 86 1004.2
20260510005746 55 290 0.0 0.0 0.00 0.19 0.19 86 1004.0
20260510005710 55 290 0.0 0.0 0.00 0.19 0.19 86 1004.0
20260510005246 56 291 0.0 1.0 0.00 0.19 0.19 86 1004.1
20260510004746 55 292 1.0 1.0 0.00 0.19 0.19 87 1004.2
20260510004245 55 306 1.0 2.0 0.00 0.19 0.19 87 1004.0
20260510004209 55 306 1.0 2.0 0.00 0.19 0.19 87 1004.0
20260510003745 55 324 2.0 2.0 0.00 0.19 0.19 88 1003.8
20260510003245 55 294 0.0 1.0 0.00 0.19 0.19 88 1003.5
20260510002746 55 285 0.0 0.0 0.00 0.19 0.19 88 1003.2
20260510002711 55 285 0.0 0.0 0.00 0.19 0.19 88 1003.2
20260510002246 55 279 1.0 1.0 0.00 0.19 0.19 88 1003.1
20260510001746 55 287 0.0 1.0 0.00 0.19 0.19 87 1002.9
20260510001245 55 285 0.0 0.0 0.00 0.19 0.19 87 1002.9
20260510000745 55 286 0.0 0.0 0.00 0.19 0.19 86 1003.1
20260510000248 55 285 0.0 0.0 0.00 0.19 0.19 86 1002.8
20260509235746 56 287 0.0 0.0 0.00 0.19 0.19 85 1002.9
20260509235246 56 284 0.0 0.0 0.00 0.19 0.19 85 1002.8
20260509234746 56 286 0.0 0.0 0.00 0.19 0.19 84 1002.7
20260509234245 56 276 0.0 1.0 0.00 0.19 0.19 83 1002.7
20260509233745 57 285 0.0 0.0 0.00 0.19 0.19 83 1002.8
20260509233246 57 287 0.0 0.0 0.00 0.19 0.19 83 1002.7
20260509232746 57 287 0.0 1.0 0.00 0.19 0.19 83 1002.7
20260509232246 56 274 1.0 1.0 0.00 0.19 0.19 84 1002.6
20260509231745 56 286 0.0 0.0 0.00 0.19 0.19 84 1002.5
20260509231245 56 280 0.0 1.0 0.00 0.19 0.19 83 1002.4
20260509230747 56 281 0.0 1.0 0.00 0.19 0.19 82 1002.5
20260509230246 56 268 1.0 2.0 0.00 0.19 0.19 82 1002.3
20260509225746 57 287 0.0 1.0 0.00 0.19 0.19 81 1002.4
20260509225246 57 285 0.0 0.0 0.00 0.19 0.19 82 1002.1
20260509224745 56 280 1.0 1.0 0.00 0.19 0.19 83 1002.1
20260509224245 56 286 1.0 1.0 0.00 0.19 0.19 82 1002.0
20260509223747 56 287 1.0 1.0 0.00 0.19 0.19 84 1001.8
20260509223246 56 286 1.0 2.0 0.00 0.19 0.19 83 1001.9
20260509222746 56 255 1.0 2.0 0.01 0.19 0.19 84 1001.7
20260509222246 55 259 1.0 2.0 0.01 0.19 0.19 85 1001.8
20260509221746 55 264 2.0 2.0 0.01 0.19 0.19 87 1001.7
20260509221246 55 298 2.0 2.0 0.01 0.19 0.19 88 1001.6
20260509220747 54 273 1.0 2.0 0.01 0.19 0.19 89 1001.6
20260509220246 54 283 1.0 1.0 0.01 0.19 0.19 90 1001.5
20260509215746 54 282 1.0 3.0 0.01 0.19 0.19 90 1001.4
20260509215245 53 274 1.0 1.0 0.01 0.19 0.19 91 1001.7
20260509214745 53 223 2.0 2.0 0.01 0.19 0.19 91 1001.8
20260509214245 53 282 0.0 1.0 0.02 0.19 0.19 91 1001.8
20260509213746 53 281 1.0 1.0 0.03 0.19 0.19 91 1001.9
20260509213246 52 278 1.0 2.0 0.14 0.19 0.19 91 1001.8
20260509212746 52 282 2.0 2.0 0.18 0.18 0.18 91 1002.2
20260509212245 51 278 1.0 1.0 0.18 0.18 0.18 91 1002.0
20260509211745 51 286 1.0 2.0 0.18 0.18 0.18 91 1002.2
20260509211245 51 282 0.0 1.0 0.18 0.18 0.18 91 1002.1
20260509210746 50 287 0.0 1.0 0.18 0.18 0.18 90 1002.2
20260509210246 51 281 1.0 2.0 0.18 0.18 0.18 90 1002.3
20260509205746 51 286 1.0 1.0 0.18 0.18 0.18 89 1002.0
20260509205245 51 274 1.0 2.0 0.18 0.18 0.18 88 1002.1
20260509204745 51 291 2.0 2.0 0.18 0.18 0.18 87 1002.3
20260509204247 51 287 1.0 2.0 0.17 0.17 0.17 85 1002.4
20260509203746 53 277 3.0 5.0 0.16 0.16 0.16 83 1002.7
20260509203245 57 289 2.0 3.0 0.05 0.05 0.05 82 1003.1
20260509202747 58 278 2.0 2.0 0.00 0.00 0.00 79 1002.0
20260509202246 58 284 1.0 1.0 0.00 0.00 0.00 78 1001.7
20260509201746 59 256 3.0 5.0 0.00 0.00 0.00 75 1001.5
20260509201246 59 256 2.0 2.0 0.00 0.00 0.00 73 1001.4
20260509200745 59 256 3.0 5.0 0.00 0.00 0.00 73 1001.3
20260509200245 59 235 3.0 6.0 0.00 0.00 0.00 73 1001.5
20260509195745 59 280 2.0 5.0 0.00 0.00 0.00 72 1001.5
20260509195246 59 286 2.0 2.0 0.00 0.00 0.00 72 1001.6
20260509194746 60 264 6.0 7.0 0.00 0.00 0.00 71 1001.4
20260509194246 60 266 2.0 2.0 0.00 0.00 0.00 72 1001.6
20260509193745 60 208 5.0 7.0 0.00 0.00 0.00 71 1001.6
20260509193245 60 251 3.0 6.0 0.00 0.00 0.00 71 1001.6
20260509192747 60 318 2.0 5.0 0.00 0.00 0.00 71 1001.4
20260509192246 60 289 2.0 2.0 0.00 0.00 0.00 72 1001.5
20260509191746 60 250 2.0 5.0 0.00 0.00 0.00 72 1001.7
20260509191246 60 277 3.0 5.0 0.00 0.00 0.00 72 1001.7
20260509190745 60 243 5.0 6.0 0.00 0.00 0.00 72 1002.1
20260509190245 60 238 3.0 6.0 0.00 0.00 0.00 72 1001.7
20260509185747 60 246 5.0 7.0 0.00 0.00 0.00 71 1001.6
20260509185246 59 271 2.0 6.0 0.00 0.00 0.00 72 1001.8
20260509184746 59 255 6.0 7.0 0.00 0.00 0.00 73 1001.6
20260509184246 59 256 3.0 7.0 0.00 0.00 0.00 73 1001.9
20260509183745 59 271 3.0 6.0 0.00 0.00 0.00 74 1001.9
20260509183245 59 286 3.0 5.0 0.00 0.00 0.00 74 1001.9
20260509182746 59 287 2.0 2.0 0.00 0.00 0.00 73 1002.3
20260509182246 59 239 2.0 3.0 0.00 0.00 0.00 74 1002.5
20260509181747 58 262 3.0 3.0 0.00 0.00 0.00 75 1002.4
20260509181246 58 235 2.0 3.0 0.00 0.00 0.00 75 1002.5
20260509180746 59 291 3.0 5.0 0.00 0.00 0.00 74 1003.0
20260509180245 60 262 3.0 3.0 0.00 0.00 0.00 74 1002.8
20260509175745 59 268 2.0 7.0 0.00 0.00 0.00 74 1002.6
20260509175247 60 261 2.0 3.0 0.00 0.00 0.00 73 1002.3
20260509174746 61 280 2.0 3.0 0.00 0.00 0.00 72 1002.3
20260509174246 61 235 5.0 6.0 0.00 0.00 0.00 71 1002.6
20260509173746 63 299 3.0 6.0 0.00 0.00 0.00 69 1002.2
20260509173245 62 267 2.0 5.0 0.00 0.00 0.00 70 1002.4
20260509172745 60 332 3.0 5.0 0.00 0.00 0.00 74 1002.3
20260509172247 62 269 3.0 6.0 0.00 0.00 0.00 72 1002.5
20260509171746 61 250 2.0 2.0 0.00 0.00 0.00 73 1002.8
20260509171246 62 272 3.0 6.0 0.00 0.00 0.00 71 1002.7
20260509170745 62 257 3.0 5.0 0.00 0.00 0.00 71 1002.7
20260509170245 63 243 3.0 5.0 0.00 0.00 0.00 70 1002.8
20260509165745 63 251 1.0 3.0 0.00 0.00 0.00 71 1003.0
20260509165246 63 251 1.0 3.0 0.00 0.00 0.00 71 1003.0
20260509164746 62 257 3.0 5.0 0.00 0.00 0.00 71 1003.1
20260509164247 62 256 3.0 5.0 0.00 0.00 0.00 71 1003.1
20260509163746 63 268 2.0 5.0 0.00 0.00 0.00 70 1003.1
20260509163247 62 261 2.0 5.0 0.00 0.00 0.00 73 1003.1
20260509162746 62 274 1.0 3.0 0.00 0.00 0.00 71 1003.5
20260509162246 61 260 2.0 6.0 0.00 0.00 0.00 71 1003.1
20260509161746 61 262 1.0 3.0 0.00 0.00 0.00 71 1003.3
20260509161245 61 275 1.0 3.0 0.00 0.00 0.00 70 1003.6
20260509160745 61 284 2.0 2.0 0.00 0.00 0.00 72 1003.7
20260509160247 61 258 1.0 3.0 0.00 0.00 0.00 72 1003.8
20260509155746 60 288 3.0 3.0 0.00 0.00 0.00 73 1004.1
20260509155246 60 267 2.0 3.0 0.00 0.00 0.00 72 1004.1
20260509154746 61 267 2.0 2.0 0.00 0.00 0.00 72 1004.2
20260509154245 61 256 2.0 2.0 0.00 0.00 0.00 71 1004.2
20260509153745 63 300 2.0 3.0 0.00 0.00 0.00 68 1004.0
20260509153247 62 271 0.0 3.0 0.00 0.00 0.00 69 1004.0
20260509152746 63 258 3.0 5.0 0.00 0.00 0.00 69 1004.1
20260509152245 62 283 2.0 3.0 0.00 0.00 0.00 71 1004.0
20260509151747 62 251 2.0 3.0 0.00 0.00 0.00 71 1003.8
20260509151246 61 220 2.0 5.0 0.00 0.00 0.00 74 1003.8
20260509150746 59 287 2.0 2.0 0.00 0.00 0.00 76 1003.7
20260509150245 59 229 2.0 5.0 0.00 0.00 0.00 76 1004.1
20260509145747 59 273 1.0 5.0 0.00 0.00 0.00 75 1004.1
20260509145246 59 287 1.0 5.0 0.00 0.00 0.00 76 1004.1
20260509144746 59 267 2.0 5.0 0.00 0.00 0.00 76 1004.2
20260509144246 59 300 3.0 5.0 0.00 0.00 0.00 74 1003.9
20260509143746 60 284 3.0 6.0 0.00 0.00 0.00 74 1004.0
20260509143245 59 272 1.0 2.0 0.00 0.00 0.00 75 1004.0
20260509142745 59 289 1.0 3.0 0.00 0.00 0.00 76 1004.2
20260509142246 58 270 2.0 2.0 0.00 0.00 0.00 77 1004.1
20260509141745 59 270 3.0 6.0 0.00 0.00 0.00 75 1004.0
20260509141247 58 245 2.0 2.0 0.00 0.00 0.00 78 1003.9
20260509140746 57 267 2.0 5.0 0.00 0.00 0.00 78 1004.1
20260509140246 57 266 3.0 5.0 0.00 0.00 0.00 79 1004.3
20260509135745 55 282 1.0 2.0 0.00 0.00 0.00 83 1004.2
20260509135245 54 267 2.0 3.0 0.00 0.00 0.00 85 1004.2
20260509134746 54 269 3.0 5.0 0.00 0.00 0.00 85 1004.3
20260509134245 53 271 2.0 3.0 0.00 0.00 0.00 86 1004.3
20260509133746 53 287 2.0 3.0 0.00 0.00 0.00 88 1004.5
20260509133246 52 282 0.0 0.0 0.00 0.00 0.00 90 1004.3
20260509132746 52 287 1.0 1.0 0.00 0.00 0.00 91 1004.4
20260509132245 52 286 0.0 1.0 0.00 0.00 0.00 92 1004.5
20260509131745 51 281 1.0 2.0 0.00 0.00 0.00 92 1004.5
20260509131245 51 265 1.0 2.0 0.00 0.00 0.00 93 1004.8
20260509130746 51 267 1.0 3.0 0.00 0.00 0.00 93 1004.5
20260509130245 50 277 1.0 2.0 0.00 0.00 0.00 94 1004.4
20260509125745 50 254 1.0 2.0 0.00 0.00 0.00 94 1004.7
20260509125246 50 257 1.0 2.0 0.00 0.00 0.00 94 1004.6
20260509124746 50 285 1.0 1.0 0.00 0.00 0.00 94 1004.5
20260509124246 50 271 1.0 1.0 0.00 0.00 0.00 94 1004.6
20260509123745 50 260 1.0 3.0 0.00 0.00 0.00 94 1004.7
20260509123245 50 280 1.0 2.0 0.00 0.00 0.00 94 1004.8
20260509122746 50 285 1.0 1.0 0.00 0.00 0.00 94 1004.7
20260509122246 49 283 0.0 1.0 0.00 0.00 0.00 94 1004.7
20260509121746 49 268 1.0 2.0 0.00 0.00 0.00 94 1004.8
20260509121245 49 277 1.0 2.0 0.00 0.00 0.00 94 1004.6
20260509120747 49 279 2.0 2.0 0.00 0.00 0.00 94 1004.8
20260509120246 49 279 1.0 1.0 0.00 0.00 0.00 94 1004.8
20260509115746 49 285 1.0 1.0 0.00 0.00 0.00 94 1004.8
20260509115247 49 279 1.0 1.0 0.00 0.00 0.00 94 1004.8
20260509114745 49 276 1.0 1.0 0.00 0.00 0.00 94 1005.1
20260509114247 49 292 1.0 2.0 0.00 0.00 0.00 94 1005.1
20260509113746 49 283 1.0 1.0 0.00 0.00 0.00 94 1005.1
20260509113246 49 286 0.0 1.0 0.00 0.00 0.00 94 1005.0
20260509112745 49 270 2.0 3.0 0.00 0.00 0.00 94 1004.9
20260509112245 49 282 1.0 1.0 0.00 0.00 0.00 94 1004.9
20260509111747 49 268 1.0 2.0 0.00 0.00 0.00 94 1004.7
20260509111246 49 305 2.0 3.0 0.00 0.00 0.00 94 1004.8
20260509110745 49 240 1.0 2.0 0.00 0.00 0.00 94 1004.6
20260509110246 49 260 1.0 2.0 0.00 0.00 0.00 94 1004.5
20260509105746 49 286 1.0 2.0 0.00 0.00 0.00 93 1004.6
20260509105246 49 276 1.0 1.0 0.00 0.00 0.00 93 1004.6
20260509104745 49 247 1.0 2.0 0.00 0.00 0.00 93 1004.7
20260509104247 49 274 1.0 1.0 0.00 0.00 0.00 93 1004.3
20260509103746 49 271 1.0 2.0 0.00 0.00 0.00 93 1004.6
20260509103246 49 277 0.0 1.0 0.00 0.00 0.00 93 1004.8
20260509102745 49 287 1.0 2.0 0.00 0.00 0.00 93 1004.6
20260509102245 49 287 0.0 1.0 0.00 0.00 0.00 92 1004.6
20260509101747 49 277 0.0 1.0 0.00 0.00 0.00 92 1005.0
20260509101246 49 273 2.0 2.0 0.00 0.00 0.00 92 1004.9
20260509100746 49 288 1.0 2.0 0.00 0.00 0.00 92 1004.9
20260509100245 49 287 0.0 1.0 0.00 0.00 0.00 92 1005.0
20260509095745 50 288 1.0 2.0 0.00 0.00 0.00 92 1004.9
20260509095247 50 278 1.0 1.0 0.00 0.00 0.00 92 1004.7
20260509094746 50 287 0.0 0.0 0.00 0.00 0.00 92 1004.8
20260509094246 50 281 1.0 2.0 0.00 0.00 0.00 92 1005.0
20260509093745 50 287 0.0 0.0 0.00 0.00 0.00 91 1005.0
20260509093245 50 282 0.0 1.0 0.00 0.00 0.00 91 1005.0
20260509092746 50 279 0.0 1.0 0.00 0.00 0.00 91 1005.3
20260509092246 50 280 1.0 1.0 0.00 0.00 0.00 91 1004.9
20260509091746 50 276 1.0 2.0 0.00 0.00 0.00 91 1005.1
20260509091245 50 282 0.0 1.0 0.00 0.00 0.00 90 1005.2
20260509090745 50 285 1.0 2.0 0.00 0.00 0.00 90 1004.9
20260509090246 50 271 1.0 1.0 0.00 0.00 0.00 90 1005.0
20260509085746 50 275 1.0 1.0 0.00 0.00 0.00 90 1005.1
20260509085246 50 278 0.0 1.0 0.00 0.00 0.00 90 1005.1
20260509084745 50 282 1.0 1.0 0.00 0.00 0.00 90 1005.0
20260509084245 50 276 1.0 2.0 0.00 0.00 0.00 90 1005.3
20260509083746 50 288 1.0 2.0 0.00 0.00 0.00 89 1005.0
20260509083246 50 278 1.0 1.0 0.00 0.00 0.00 89 1005.1